{"data":{"norad_id":68900,"intl_designator":"2026-097F","name":"STARLINK-36961","alt_names":[],"object_type":"PAYLOAD","status":"ACTIVE","operator":null,"country":"US","launch_date":"2026-04-30","launch_site_code":"AFWTR","launch_vehicle":null,"mission":null,"orbit_class":"UNKNOWN","rcs_meters":null,"size_class":null,"mass_kg":null,"dimensions":null,"purposes":["comms"],"wikipedia_slug":null,"has_3d_model":false,"image_url":null,"decayed_at":null,"tle_current":{"epoch":"2026-09-19T23:54:35.059104Z","epoch_age_seconds":59075,"freshness":"FRESH","line1":"1 68900U 26097F   26262.99623911  .00008309  00000+0  25941-3 0  9998","line2":"2 68900  97.2857  97.1300 0001423  99.2729 260.8675 15.33446245 22017","mean_motion":15.33446245,"eccentricity":0.0001423,"inclination_deg":97.2857,"raan_deg":97.13,"arg_perigee_deg":99.2729,"mean_anomaly_deg":260.8675,"bstar":0.00025941,"rev_number":2201,"period_min":93.906128414694,"perigee_km":464.56561507486,"apogee_km":466.51332539828,"semimajor_km":6843.6764702366,"source":"CELESTRAK","updated_at":"2026-09-20T09:00:44.046530Z"}}}